Location: Dover
(48.8500°N, 53.9833°W)
Time: 02:11:02
(UTC+00:00)

Cosmos 2233 Rocket - Pass Details

Date: 14 November 2025
Orbit: 952 x 989 km, 82.9° (Epoch: 13 December)

Event Time Altitude Azimuth Distance (km) Brightness Sun altitude
Rises 21:01:49 0° 183° (S) 3,675 7.3 -10.8°
Reaches altitude 10° 21:04:19 10° 183° (S) 2,735 6.6 -11.2°
Maximum altitude 21:10:36 82° 97° (E) 1,005 4.0 -12.2°
Drops below altitude 10° 21:16:57 10° 11° (N) 2,763 6.1 -13.2°
Sets 21:19:29 0° 11° (N) 3,715 6.8 -13.6°
